| time (UTC) | temp F | wind direction | speed MPH | gust MPH | rain 1hr in | rain 24hr in | rain mn in | humidity % | barometer mb |
| 20260831225918 | 83 | 130 | 4.0 | 10.0 | 0.00 | 0.00 | 0.00 | 100 | 1009.4 |
| 20260831225634 | 84 | 144 | 6.0 | 10.0 | 0.00 | 0.00 | 0.00 | 100 | 1009.4 |
| 20260831224917 | 84 | 161 | 7.0 | 10.0 | 0.00 | 0.00 | 0.00 | 100 | 1009.4 |
| 20260831224417 | 84 | 178 | 3.0 | 11.0 | 0.00 | 0.00 | 0.00 | 100 | 1009.4 |
| 20260831223916 | 83 | 142 | 6.0 | 11.0 | 0.00 | 0.00 | 0.00 | 100 | 1009.4 |
| 20260831223415 | 84 | 127 | 8.0 | 11.0 | 0.00 | 0.00 | 0.00 | 100 | 1009.4 |
| 20260831222915 | 84 | 130 | 7.0 | 13.0 | 0.00 | 0.00 | 0.00 | 100 | 1009.4 |
| 20260831222414 | 83 | 137 | 5.0 | 13.0 | 0.00 | 0.00 | 0.00 | 100 | 1009.4 |
| 20260831221913 | 83 | 232 | 6.0 | 12.0 | 0.00 | 0.00 | 0.00 | 100 | 1009.4 |
| 20260831221413 | 83 | 153 | 5.0 | 11.0 | 0.00 | 0.00 | 0.00 | 100 | 1009.4 |
| 20260831220912 | 82 | 137 | 7.0 | 11.0 | 0.00 | 0.00 | 0.00 | 100 | 1009.4 |
| 20260831220638 | 82 | 122 | 5.0 | 11.0 | 0.00 | 0.00 | 0.00 | 100 | 1009.4 |
| 20260831215911 | 81 | 160 | 4.0 | 13.0 | 0.00 | 0.00 | 0.00 | 100 | 1009.4 |
| 20260831215408 | 81 | 170 | 7.0 | 13.0 | 0.00 | 0.00 | 0.00 | 100 | 1009.4 |
| 20260831214907 | 81 | 99 | 2.0 | 11.0 | 0.00 | 0.00 | 0.00 | 100 | 1009.4 |
| 20260831214351 | 81 | 181 | 7.0 | 12.0 | 0.00 | 0.00 | 0.00 | 100 | 1009.4 |
| 20260831213850 | 81 | 104 | 7.0 | 12.0 | 0.00 | 0.00 | 0.00 | 100 | 1009.4 |
| 20260831213349 | 80 | 130 | 8.0 | 12.0 | 0.00 | 0.00 | 0.00 | 100 | 1009.4 |
| 20260831212850 | 81 | 177 | 5.0 | 13.0 | 0.00 | 0.00 | 0.00 | 100 | 1009.4 |
| 20260831212608 | 80 | 180 | 7.0 | 13.0 | 0.00 | 0.00 | 0.00 | 100 | 1009.4 |
| 20260831211848 | 81 | 185 | 11.0 | 13.0 | 0.00 | 0.00 | 0.00 | 100 | 1009.4 |
| 20260831211347 | 80 | 188 | 4.0 | 13.0 | 0.00 | 0.00 | 0.00 | 100 | 1009.4 |
| 20260831210847 | 80 | 158 | 7.0 | 13.0 | 0.00 | 0.00 | 0.00 | 100 | 1009.4 |
| 20260831210346 | 80 | 184 | 8.0 | 15.0 | 0.00 | 0.00 | 0.00 | 100 | 1009.4 |
| 20260831205845 | 80 | 201 | 11.0 | 15.0 | 0.00 | 0.00 | 0.00 | 100 | 1009.4 |
| 20260831205345 | 80 | 205 | 9.0 | 15.0 | 0.00 | 0.00 | 0.00 | 100 | 1009.4 |
| 20260831204844 | 80 | 160 | 10.0 | 15.0 | 0.00 | 0.00 | 0.00 | 100 | 1009.4 |
| 20260831204343 | 80 | 156 | 10.0 | 15.0 | 0.00 | 0.00 | 0.00 | 100 | 1009.4 |
| 20260831203842 | 79 | 133 | 10.0 | 14.0 | 0.00 | 0.00 | 0.00 | 100 | 1009.4 |
| 20260831203608 | 80 | 205 | 6.0 | 14.0 | 0.00 | 0.00 | 0.00 | 100 | 1009.4 |
| 20260831202842 | 79 | 167 | 8.0 | 16.0 | 0.00 | 0.00 | 0.00 | 100 | 1009.4 |
| 20260831202341 | 78 | 195 | 8.0 | 16.0 | 0.00 | 0.00 | 0.00 | 100 | 1009.4 |
| 20260831201841 | 78 | 163 | 8.0 | 13.0 | 0.00 | 0.00 | 0.00 | 100 | 1009.4 |
| 20260831201340 | 77 | 161 | 8.0 | 15.0 | 0.00 | 0.00 | 0.00 | 100 | 1009.4 |
| 20260831200839 | 77 | 165 | 8.0 | 15.0 | 0.00 | 0.00 | 0.00 | 100 | 1009.4 |
| 20260831195839 | 76 | 189 | 9.0 | 13.0 | 0.00 | 0.00 | 0.00 | 100 | 1009.4 |
| 20260831195337 | 76 | 167 | 9.0 | 13.0 | 0.00 | 0.00 | 0.00 | 100 | 1009.4 |
| 20260831195057 | 75 | 177 | 7.0 | 12.0 | 0.00 | 0.00 | 0.00 | 100 | 1009.4 |
| 20260831194336 | 75 | 192 | 6.0 | 12.0 | 0.00 | 0.00 | 0.00 | 100 | 1009.4 |
| 20260831193836 | 75 | 137 | 8.0 | 12.0 | 0.00 | 0.00 | 0.00 | 100 | 1009.4 |
| 20260831193601 | 74 | 157 | 6.0 | 11.0 | 0.00 | 0.00 | 0.00 | 100 | 1009.4 |
| 20260831192835 | 75 | 181 | 5.0 | 10.0 | 0.00 | 0.00 | 0.00 | 100 | 1009.4 |
| 20260831192334 | 75 | 136 | 9.0 | 10.0 | 0.00 | 0.00 | 0.00 | 100 | 1009.4 |
| 20260831191833 | 75 | 157 | 3.0 | 6.0 | 0.00 | 0.00 | 0.00 | 100 | 1009.4 |
| 20260831191333 | 76 | 120 | 3.0 | 6.0 | 0.00 | 0.00 | 0.00 | 100 | 1009.4 |
| 20260831190832 | 76 | 113 | 2.0 | 6.0 | 0.00 | 0.00 | 0.00 | 100 | 1009.4 |
| 20260831190321 | 76 | 217 | 0.0 | 6.0 | 0.00 | 0.00 | 0.00 | 100 | 1009.4 |
| 20260831185821 | 77 | 217 | 0.0 | 6.0 | 0.00 | 0.00 | 0.00 | 100 | 1009.4 |
| 20260831185320 | 77 | 205 | 3.0 | 7.0 | 0.00 | 0.00 | 0.00 | 100 | 1009.4 |
| 20260831184819 | 78 | 226 | 2.0 | 8.0 | 0.00 | 0.00 | 0.00 | 100 | 1009.4 |
| 20260831184318 | 77 | 213 | 4.0 | 9.0 | 0.00 | 0.00 | 0.00 | 100 | 1009.4 |
| 20260831183818 | 77 | 202 | 5.0 | 9.0 | 0.00 | 0.00 | 0.00 | 100 | 1009.4 |
| 20260831183318 | 77 | 127 | 7.0 | 9.0 | 0.00 | 0.00 | 0.00 | 100 | 1009.4 |
| 20260831182817 | 77 | 123 | 4.0 | 9.0 | 0.00 | 0.00 | 0.00 | 100 | 1009.4 |
| 20260831182316 | 77 | 149 | 4.0 | 10.0 | 0.00 | 0.00 | 0.00 | 100 | 1009.4 |
| 20260831182037 | 77 | 81 | 6.0 | 11.0 | 0.00 | 0.00 | 0.00 | 100 | 1009.4 |
| 20260831181315 | 77 | 115 | 7.0 | 11.0 | 0.00 | 0.00 | 0.00 | 100 | 1009.4 |
| 20260831180814 | 77 | 130 | 6.0 | 14.0 | 0.00 | 0.00 | 0.00 | 100 | 1009.4 |
| 20260831180314 | 76 | 102 | 6.0 | 14.0 | 0.00 | 0.00 | 0.00 | 100 | 1009.4 |
| 20260831175813 | 77 | 122 | 10.0 | 13.0 | 0.00 | 0.00 | 0.00 | 100 | 1009.4 |
| 20260831175313 | 76 | 66 | 11.0 | 12.0 | 0.00 | 0.00 | 0.00 | 100 | 1009.4 |
| 20260831174812 | 76 | 87 | 8.0 | 12.0 | 0.00 | 0.00 | 0.00 | 100 | 1009.4 |
| 20260831174312 | 76 | 108 | 7.0 | 15.0 | 0.00 | 0.00 | 0.00 | 100 | 1009.4 |
| 20260831173812 | 74 | 73 | 11.0 | 15.0 | 0.00 | 0.00 | 0.00 | 100 | 1009.4 |
| 20260831173311 | 74 | 81 | 8.0 | 15.0 | 0.00 | 0.00 | 0.00 | 100 | 1009.4 |
| 20260831172536 | 69 | 119 | 13.0 | 16.0 | 0.00 | 0.00 | 0.00 | 100 | 1009.4 |
| 20260831171809 | 68 | 97 | 11.0 | 15.0 | 0.00 | 0.00 | 0.00 | 100 | 1009.4 |
| 20260831170808 | 67 | 92 | 10.0 | 14.0 | 0.00 | 0.00 | 0.00 | 100 | 1009.4 |
| 20260831170307 | 67 | 92 | 11.0 | 15.0 | 0.00 | 0.00 | 0.00 | 100 | 1009.4 |
| 20260831165806 | 69 | 106 | 9.0 | 16.0 | 0.00 | 0.00 | 0.00 | 100 | 1009.4 |
| 20260831165306 | 68 | 99 | 11.0 | 17.0 | 0.00 | 0.00 | 0.00 | 100 | 1009.4 |
| 20260831164805 | 68 | 113 | 12.0 | 17.0 | 0.00 | 0.00 | 0.00 | 100 | 1009.4 |
| 20260831164304 | 69 | 104 | 11.0 | 17.0 | 0.00 | 0.00 | 0.00 | 100 | 1009.4 |
| 20260831163804 | 71 | 101 | 12.0 | 17.0 | 0.00 | 0.00 | 0.00 | 100 | 1009.4 |
| 20260831163303 | 72 | 80 | 12.0 | 17.0 | 0.00 | 0.00 | 0.00 | 100 | 1009.4 |
| 20260831162802 | 72 | 66 | 12.0 | 17.0 | 0.00 | 0.00 | 0.00 | 100 | 1009.4 |
| 20260831162305 | 72 | 91 | 11.0 | 15.0 | 0.00 | 0.00 | 0.00 | 100 | 1009.4 |
| 20260831161801 | 72 | 70 | 11.0 | 15.0 | 0.00 | 0.00 | 0.00 | 100 | 1009.4 |
| 20260831161301 | 72 | 64 | 9.0 | 12.0 | 0.00 | 0.00 | 0.00 | 100 | 1009.4 |
| 20260831160800 | 72 | 102 | 9.0 | 11.0 | 0.00 | 0.00 | 0.00 | 100 | 1009.4 |
| 20260831160259 | 72 | 115 | 9.0 | 11.0 | 0.00 | 0.00 | 0.00 | 100 | 1009.4 |
| 20260831160023 | 72 | 97 | 8.0 | 10.0 | 0.00 | 0.00 | 0.00 | 100 | 1009.4 |
| 20260831155258 | 73 | 119 | 8.0 | 10.0 | 0.00 | 0.00 | 0.00 | 100 | 1009.4 |
| 20260831154758 | 72 | 123 | 6.0 | 12.0 | 0.00 | 0.00 | 0.00 | 100 | 1009.4 |
| 20260831154257 | 72 | 119 | 7.0 | 12.0 | 0.00 | 0.00 | 0.00 | 100 | 1009.4 |
| 20260831154023 | 72 | 102 | 9.0 | 12.0 | 0.00 | 0.00 | 0.00 | 100 | 1009.4 |
| 20260831153256 | 73 | 129 | 8.0 | 11.0 | 0.00 | 0.00 | 0.00 | 100 | 1009.4 |
| 20260831152255 | 72 | 157 | 8.0 | 17.0 | 0.00 | 0.00 | 0.00 | 100 | 1009.4 |
| 20260831151755 | 72 | 142 | 8.0 | 17.0 | 0.00 | 0.00 | 0.00 | 100 | 1009.4 |
| 20260831151254 | 73 | 164 | 9.0 | 15.0 | 0.00 | 0.00 | 0.00 | 100 | 1009.4 |
| 20260831150753 | 72 | 174 | 11.0 | 15.0 | 0.00 | 0.00 | 0.00 | 100 | 1009.4 |
| 20260831150253 | 72 | 126 | 12.0 | 15.0 | 0.00 | 0.00 | 0.00 | 100 | 1009.4 |
| 20260831145752 | 72 | 147 | 9.0 | 15.0 | 0.00 | 0.00 | 0.00 | 100 | 1009.4 |
| 20260831145251 | 72 | 165 | 10.0 | 15.0 | 0.00 | 0.00 | 0.00 | 100 | 1009.4 |
| 20260831144750 | 73 | 153 | 10.0 | 19.0 | 0.00 | 0.00 | 0.00 | 100 | 1009.4 |
| 20260831144249 | 74 | 154 | 10.0 | 19.0 | 0.00 | 0.00 | 0.00 | 100 | 1009.4 |
| 20260831143750 | 75 | 156 | 12.0 | 17.0 | 0.00 | 0.00 | 0.00 | 100 | 1009.4 |
| 20260831143249 | 76 | 168 | 11.0 | 19.0 | 0.00 | 0.00 | 0.00 | 100 | 1009.4 |
| 20260831142748 | 77 | 157 | 12.0 | 19.0 | 0.00 | 0.00 | 0.00 | 100 | 1009.4 |
| 20260831142510 | 78 | 147 | 9.0 | 18.0 | 0.00 | 0.00 | 0.00 | 100 | 1009.4 |
| 20260831142011 | 73 | 146 | 6.0 | 16.0 | 0.00 | 0.00 | 0.00 | 100 | 1009.4 |
| 20260831141246 | 74 | 142 | 10.0 | 16.0 | 0.00 | 0.00 | 0.00 | 100 | 1009.4 |
| 20260831141006 | 75 | 143 | 7.0 | 15.0 | 0.00 | 0.00 | 0.00 | 100 | 1009.4 |
| 20260831140246 | 75 | 163 | 8.0 | 15.0 | 0.00 | 0.00 | 0.00 | 100 | 1009.4 |
| 20260831140002 | 75 | 136 | 8.0 | 17.0 | 0.00 | 0.00 | 0.00 | 100 | 1009.4 |
| 20260831135243 | 74 | 177 | 11.0 | 17.0 | 0.00 | 0.00 | 0.00 | 100 | 1009.4 |
| 20260831134744 | 75 | 129 | 9.0 | 14.0 | 0.00 | 0.00 | 0.00 | 100 | 1009.4 |
| 20260831134243 | 74 | 163 | 9.0 | 15.0 | 0.00 | 0.00 | 0.00 | 100 | 1009.4 |
| 20260831133742 | 75 | 187 | 11.0 | 15.0 | 0.00 | 0.00 | 0.00 | 100 | 1009.4 |
| 20260831133242 | 76 | 125 | 8.0 | 10.0 | 0.00 | 0.00 | 0.00 | 100 | 1009.4 |
| 20260831132741 | 75 | 163 | 4.0 | 7.0 | 0.00 | 0.00 | 0.00 | 100 | 1009.4 |
| 20260831132240 | 74 | 122 | 4.0 | 6.0 | 0.00 | 0.00 | 0.00 | 100 | 1009.4 |
| 20260831131740 | 74 | 115 | 4.0 | 6.0 | 0.00 | 0.00 | 0.00 | 100 | 1009.4 |
| 20260831131239 | 74 | 99 | 0.0 | 4.0 | 0.00 | 0.00 | 0.00 | 100 | 1009.4 |
| 20260831130734 | 74 | 115 | 2.0 | 3.0 | 0.00 | 0.00 | 0.00 | 100 | 1009.4 |
| 20260831130234 | 74 | 99 | 2.0 | 3.0 | 0.00 | 0.00 | 0.00 | 100 | 1009.4 |
| 20260831125733 | 74 | 149 | 1.0 | 3.0 | 0.00 | 0.00 | 0.00 | 100 | 1009.4 |
| 20260831125230 | 74 | 172 | 0.0 | 5.0 | 0.00 | 0.00 | 0.00 | 100 | 1009.4 |
| 20260831124726 | 73 | 172 | 0.0 | 5.0 | 0.00 | 0.00 | 0.00 | 100 | 1009.4 |
| 20260831124225 | 75 | 153 | 2.0 | 9.0 | 0.00 | 0.00 | 0.00 | 100 | 1009.4 |
| 20260831123935 | 75 | 167 | 4.0 | 9.0 | 0.00 | 0.00 | 0.00 | 100 | 1009.4 |
| 20260831123435 | 73 | 167 | 4.0 | 8.0 | 0.00 | 0.00 | 0.00 | 100 | 1009.4 |
| 20260831122713 | 73 | 177 | 3.0 | 5.0 | 0.00 | 0.00 | 0.00 | 100 | 1009.4 |
| 20260831122212 | 74 | 115 | 3.0 | 5.0 | 0.00 | 0.00 | 0.00 | 100 | 1009.4 |
| 20260831121713 | 75 | 140 | 3.0 | 5.0 | 0.00 | 0.00 | 0.00 | 100 | 1009.4 |
| 20260831121211 | 73 | 160 | 2.0 | 6.0 | 0.00 | 0.00 | 0.00 | 100 | 1009.4 |
| 20260831120711 | 74 | 144 | 4.0 | 6.0 | 0.00 | 0.00 | 0.00 | 100 | 1009.4 |
| 20260831120427 | 73 | 126 | 0.0 | 0.0 | 0.00 | 0.00 | 0.00 | 100 | 1009.4 |
| 20260831115637 | 73 | 126 | 0.0 | 2.0 | 0.00 | 0.00 | 0.00 | 100 | 1009.4 |
| 20260831115110 | 74 | 126 | 0.0 | 6.0 | 0.00 | 0.00 | 0.00 | 100 | 1009.4 |
| 20260831114604 | 73 | 171 | 4.0 | 6.0 | 0.00 | 0.00 | 0.00 | 100 | 1009.4 |
| 20260831114102 | 73 | 175 | 4.0 | 6.0 | 0.00 | 0.00 | 0.00 | 100 | 1009.4 |
| 20260831113603 | 73 | 168 | 4.0 | 5.0 | 0.00 | 0.00 | 0.00 | 100 | 1009.4 |
| 20260831113102 | 74 | 156 | 4.0 | 5.0 | 0.00 | 0.00 | 0.00 | 100 | 1009.4 |
| 20260831112601 | 73 | 127 | 0.0 | 4.0 | 0.00 | 0.00 | 0.00 | 100 | 1009.4 |
| 20260831111556 | 74 | 279 | 0.0 | 0.0 | 0.00 | 0.00 | 0.00 | 100 | 1009.4 |
| 20260831111053 | 74 | 279 | 0.0 | 4.0 | 0.00 | 0.00 | 0.00 | 100 | 1009.4 |
| 20260831110550 | 75 | 279 | 0.0 | 5.0 | 0.00 | 0.00 | 0.00 | 100 | 1009.4 |
| 20260831105541 | 74 | 336 | 3.0 | 5.0 | 0.00 | 0.00 | 0.00 | 100 | 1009.4 |
| 20260831105040 | 74 | 322 | 0.0 | 5.0 | 0.00 | 0.00 | 0.00 | 100 | 1009.4 |
| 20260831104540 | 75 | 350 | 3.0 | 5.0 | 0.00 | 0.00 | 0.00 | 100 | 1009.4 |
| 20260831104039 | 75 | 345 | 3.0 | 6.0 | 0.00 | 0.00 | 0.00 | 100 | 1009.4 |
| 20260831103538 | 75 | 341 | 4.0 | 6.0 | 0.00 | 0.00 | 0.00 | 100 | 1009.4 |
| 20260831103255 | 76 | 322 | 5.0 | 6.0 | 0.00 | 0.00 | 0.00 | 100 | 1009.4 |
| 20260831102538 | 75 | 344 | 5.0 | 6.0 | 0.00 | 0.00 | 0.00 | 100 | 1009.4 |
| 20260831102037 | 76 | 337 | 5.0 | 6.0 | 0.00 | 0.00 | 0.00 | 100 | 1009.4 |
| 20260831101536 | 75 | 180 | 0.0 | 0.0 | 0.00 | 0.00 | 0.00 | 100 | 1009.4 |
| 20260831101029 | 75 | 180 | 0.0 | 0.0 | 0.00 | 0.00 | 0.00 | 100 | 1009.4 |
| 20260831100529 | 75 | 180 | 0.0 | 4.0 | 0.00 | 0.00 | 0.00 | 100 | 1009.4 |
| 20260831100024 | 75 | 180 | 0.0 | 4.0 | 0.00 | 0.00 | 0.00 | 100 | 1009.4 |
| 20260831095522 | 74 | 180 | 0.0 | 4.0 | 0.00 | 0.00 | 0.00 | 100 | 1009.4 |
| 20260831095015 | 74 | 168 | 2.0 | 6.0 | 0.00 | 0.00 | 0.00 | 100 | 1009.4 |
| 20260831094515 | 76 | 199 | 0.0 | 8.0 | 0.00 | 0.00 | 0.00 | 100 | 1009.4 |
| 20260831094014 | 76 | 219 | 4.0 | 8.0 | 0.00 | 0.00 | 0.00 | 100 | 1009.4 |
| 20260831093514 | 71 | 192 | 4.0 | 8.0 | 0.00 | 0.00 | 0.00 | 100 | 1009.4 |
| 20260831093012 | 70 | 220 | 0.0 | 4.0 | 0.00 | 0.00 | 0.00 | 100 | 1009.4 |
| 20260831092500 | 71 | 220 | 0.0 | 4.0 | 0.00 | 0.00 | 0.00 | 100 | 1009.4 |
| 20260831091951 | 71 | 243 | 4.0 | 5.0 | 0.00 | 0.00 | 0.00 | 100 | 1009.4 |
| 20260831091450 | 72 | 277 | 0.0 | 6.0 | 0.00 | 0.00 | 0.00 | 100 | 1009.4 |
| 20260831090949 | 72 | 310 | 2.0 | 6.0 | 0.00 | 0.00 | 0.00 | 100 | 1009.4 |
| 20260831090449 | 73 | 323 | 5.0 | 8.0 | 0.00 | 0.00 | 0.00 | 100 | 1009.4 |
| 20260831085948 | 74 | 320 | 4.0 | 10.0 | 0.00 | 0.00 | 0.00 | 100 | 1009.4 |
| 20260831085711 | 74 | 25 | 3.0 | 11.0 | 0.00 | 0.00 | 0.00 | 100 | 1009.4 |
| 20260831085208 | 72 | 71 | 6.0 | 15.0 | 0.00 | 0.00 | 0.00 | 100 | 1009.4 |
| 20260831084446 | 74 | 99 | 8.0 | 21.0 | 0.00 | 0.00 | 0.00 | 100 | 1009.4 |
| 20260831083946 | 76 | 59 | 10.0 | 21.0 | 0.00 | 0.00 | 0.00 | 100 | 1009.4 |
| 20260831083705 | 76 | 25 | 14.0 | 21.0 | 0.00 | 0.00 | 0.00 | 100 | 1009.4 |
| 20260831082944 | 76 | 49 | 13.0 | 26.0 | 0.00 | 0.00 | 0.00 | 100 | 1009.4 |
| 20260831082444 | 76 | 59 | 13.0 | 26.0 | 0.00 | 0.00 | 0.00 | 100 | 1009.4 |
| 20260831081944 | 76 | 67 | 17.0 | 26.0 | 0.00 | 0.00 | 0.00 | 100 | 1009.4 |
| 20260831081444 | 76 | 36 | 17.0 | 23.0 | 0.00 | 0.00 | 0.00 | 100 | 1009.4 |
| 20260831080942 | 73 | 40 | 16.0 | 21.0 | 0.00 | 0.00 | 0.00 | 100 | 1009.4 |
| 20260831080442 | 74 | 18 | 12.0 | 18.0 | 0.00 | 0.00 | 0.00 | 100 | 1009.4 |
| 20260831075941 | 73 | 39 | 11.0 | 18.0 | 0.00 | 0.00 | 0.00 | 100 | 1009.4 |
| 20260831075441 | 75 | 12 | 10.0 | 20.0 | 0.00 | 0.00 | 0.00 | 100 | 1009.4 |
| 20260831074940 | 75 | 8 | 14.0 | 23.0 | 0.00 | 0.00 | 0.00 | 100 | 1009.4 |
| 20260831074439 | 75 | 12 | 15.0 | 23.0 | 0.00 | 0.00 | 0.00 | 100 | 1009.4 |
| 20260831073939 | 75 | 5 | 17.0 | 23.0 | 0.00 | 0.00 | 0.00 | 100 | 1009.4 |
| 20260831073701 | 72 | 8 | 14.0 | 22.0 | 0.00 | 0.00 | 0.00 | 100 | 1009.4 |
| 20260831072938 | 72 | 0 | 14.0 | 22.0 | 0.00 | 0.00 | 0.00 | 100 | 1009.4 |
| 20260831072437 | 75 | 11 | 13.0 | 25.0 | 0.00 | 0.00 | 0.00 | 100 | 1009.4 |
| 20260831071937 | 75 | 42 | 16.0 | 29.0 | 0.00 | 0.00 | 0.00 | 100 | 1009.4 |
| 20260831071436 | 74 | 347 | 18.0 | 29.0 | 0.00 | 0.00 | 0.00 | 100 | 1009.4 |
| 20260831071154 | 74 | 14 | 22.0 | 27.0 | 0.00 | 0.00 | 0.00 | 100 | 1009.4 |
| 20260831065935 | 74 | 35 | 18.0 | 29.0 | 0.00 | 0.00 | 0.00 | 100 | 1009.4 |
| 20260831065434 | 74 | 7 | 21.0 | 29.0 | 0.00 | 0.00 | 0.00 | 100 | 1009.4 |
| 20260831064933 | 73 | 12 | 21.0 | 27.0 | 0.00 | 0.00 | 0.00 | 100 | 1009.4 |
| 20260831064433 | 74 | 14 | 18.0 | 25.0 | 0.00 | 0.00 | 0.00 | 100 | 1009.4 |
| 20260831063932 | 74 | 19 | 16.0 | 22.0 | 0.00 | 0.00 | 0.00 | 100 | 1009.4 |
| 20260831063431 | 75 | 14 | 16.0 | 21.0 | 0.00 | 0.00 | 0.00 | 100 | 1009.4 |
| 20260831063154 | 75 | 1 | 14.0 | 21.0 | 0.00 | 0.00 | 0.00 | 100 | 1009.4 |
| 20260831062431 | 70 | 333 | 17.0 | 21.0 | 0.00 | 0.00 | 0.00 | 100 | 1009.4 |
| 20260831061930 | 67 | 303 | 13.0 | 16.0 | 0.00 | 0.00 | 0.00 | 100 | 1009.4 |
| 20260831061429 | 66 | 350 | 12.0 | 16.0 | 0.00 | 0.00 | 0.00 | 100 | 1009.4 |
| 20260831060929 | 68 | 350 | 11.0 | 16.0 | 0.00 | 0.00 | 0.00 | 100 | 1009.4 |
| 20260831060428 | 70 | 338 | 10.0 | 18.0 | 0.00 | 0.00 | 0.00 | 100 | 1009.4 |
| 20260831055927 | 72 | 336 | 9.0 | 19.0 | 0.00 | 0.00 | 0.00 | 100 | 1009.4 |
| 20260831055427 | 75 | 327 | 10.0 | 19.0 | 0.00 | 0.00 | 0.00 | 100 | 1009.4 |
| 20260831054926 | 75 | 326 | 14.0 | 19.0 | 0.00 | 0.00 | 0.00 | 100 | 1009.4 |
| 20260831054643 | 71 | 329 | 12.0 | 16.0 | 0.00 | 0.00 | 0.00 | 100 | 1009.4 |
| 20260831054146 | 71 | 338 | 9.0 | 16.0 | 0.00 | 0.00 | 0.00 | 100 | 1009.4 |
| 20260831053425 | 69 | 341 | 12.0 | 19.0 | 0.00 | 0.00 | 0.00 | 100 | 1009.4 |
| 20260831052923 | 70 | 348 | 10.0 | 27.0 | 0.00 | 0.00 | 0.00 | 100 | 1009.4 |
| 20260831052424 | 74 | 327 | 10.0 | 27.0 | 0.00 | 0.00 | 0.00 | 100 | 1009.4 |
| 20260831051922 | 71 | 312 | 13.0 | 39.0 | 0.00 | 0.00 | 0.00 | 100 | 1009.4 |
| 20260831051422 | 71 | 303 | 17.0 | 45.0 | 0.00 | 0.00 | 0.00 | 100 | 1009.4 |
| 20260831051139 | 73 | 288 | 28.0 | 45.0 | 0.00 | 0.00 | 0.00 | 100 | 1009.4 |
| 20260831050421 | 76 | 262 | 26.0 | 43.0 | 0.00 | 0.00 | 0.00 | 100 | 1009.4 |
| 20260831045921 | 83 | 260 | 19.0 | 37.0 | 0.00 | 0.00 | 0.00 | 100 | 1009.4 |
| 20260831045639 | 88 | 215 | 23.0 | 32.0 | 0.00 | 0.00 | 0.00 | 100 | 1009.4 |
| 20260831044919 | 91 | 229 | 17.0 | 25.0 | 0.00 | 0.00 | 0.00 | 100 | 1009.4 |
| 20260831044418 | 85 | 236 | 13.0 | 24.0 | 0.00 | 0.00 | 0.00 | 100 | 1009.4 |
| 20260831043918 | 86 | 225 | 13.0 | 24.0 | 0.00 | 0.00 | 0.00 | 100 | 1009.4 |
| 20260831043417 | 88 | 199 | 15.0 | 21.0 | 0.00 | 0.00 | 0.00 | 100 | 1009.4 |
| 20260831043145 | 90 | 284 | 4.0 | 6.0 | 0.00 | 0.00 | 0.00 | 100 | 1009.4 |
| 20260831042416 | 87 | 253 | 3.0 | 6.0 | 0.00 | 0.00 | 0.00 | 100 | 1009.4 |
| 20260831041916 | 89 | 237 | 3.0 | 6.0 | 0.00 | 0.00 | 0.00 | 100 | 1009.4 |
| 20260831041415 | 89 | 230 | 3.0 | 7.0 | 0.00 | 0.00 | 0.00 | 100 | 1009.4 |
| 20260831040915 | 87 | 220 | 3.0 | 9.0 | 0.00 | 0.00 | 0.00 | 100 | 1009.4 |
| 20260831040642 | 89 | 260 | 2.0 | 9.0 | 0.00 | 0.00 | 0.00 | 100 | 1009.4 |
| 20260831040125 | 89 | 237 | 4.0 | 9.0 | 0.00 | 0.00 | 0.00 | 100 | 1009.4 |
| 20260831035405 | 89 | 248 | 4.0 | 7.0 | 0.00 | 0.00 | 0.00 | 100 | 1009.4 |
| 20260831035122 | 89 | 272 | 5.0 | 7.0 | 0.00 | 0.00 | 0.00 | 100 | 1009.4 |
| 20260831034403 | 89 | 248 | 3.0 | 7.0 | 0.00 | 0.00 | 0.00 | 100 | 1009.4 |
| 20260831034123 | 89 | 239 | 3.0 | 7.0 | 0.00 | 0.00 | 0.00 | 100 | 1009.4 |
| 20260831033400 | 89 | 267 | 4.0 | 7.0 | 0.00 | 0.00 | 0.00 | 100 | 1009.4 |
| 20260831032859 | 88 | 248 | 3.0 | 9.0 | 0.00 | 0.00 | 0.00 | 100 | 1009.4 |
| 20260831032359 | 89 | 261 | 4.0 | 9.0 | 0.00 | 0.00 | 0.00 | 100 | 1009.4 |
| 20260831032127 | 89 | 257 | 5.0 | 9.0 | 0.00 | 0.00 | 0.00 | 100 | 1009.4 |
| 20260831031357 | 90 | 262 | 6.0 | 9.0 | 0.00 | 0.00 | 0.00 | 100 | 1009.4 |
| 20260831030857 | 90 | 260 | 8.0 | 9.0 | 0.00 | 0.00 | 0.00 | 100 | 1009.4 |
| 20260831030617 | 92 | 268 | 4.0 | 9.0 | 0.00 | 0.00 | 0.00 | 100 | 1009.4 |
| 20260831025355 | 82 | 262 | 5.0 | 7.0 | 0.00 | 0.00 | 0.00 | 100 | 1009.4 |
| 20260831024855 | 87 | 278 | 3.0 | 7.0 | 0.00 | 0.00 | 0.00 | 100 | 1009.4 |
| 20260831024354 | 88 | 247 | 3.0 | 6.0 | 0.00 | 0.00 | 0.00 | 100 | 1009.4 |
| 20260831023853 | 86 | 261 | 4.0 | 6.0 | 0.00 | 0.00 | 0.00 | 100 | 1009.4 |
| 20260831023610 | 92 | 312 | 3.0 | 6.0 | 0.00 | 0.00 | 0.00 | 100 | 1009.4 |
| 20260831022852 | 91 | 300 | 4.0 | 9.0 | 0.00 | 0.00 | 0.00 | 100 | 1009.4 |
| 20260831022351 | 90 | 272 | 5.0 | 9.0 | 0.00 | 0.00 | 0.00 | 100 | 1009.4 |
| 20260831021851 | 92 | 309 | 8.0 | 9.0 | 0.00 | 0.00 | 0.00 | 100 | 1009.4 |
| 20260831021350 | 92 | 282 | 6.0 | 9.0 | 0.00 | 0.00 | 0.00 | 100 | 1009.4 |
| 20260831020849 | 87 | 264 | 8.0 | 10.0 | 0.00 | 0.00 | 0.00 | 100 | 1009.4 |
| 20260831020348 | 87 | 271 | 5.0 | 10.0 | 0.00 | 0.00 | 0.00 | 100 | 1009.4 |
| 20260831015849 | 89 | 243 | 8.0 | 11.0 | 0.00 | 0.00 | 0.00 | 100 | 1009.4 |
| 20260831015348 | 90 | 286 | 7.0 | 12.0 | 0.00 | 0.00 | 0.00 | 100 | 1009.4 |
| 20260831014847 | 91 | 262 | 8.0 | 12.0 | 0.00 | 0.00 | 0.00 | 100 | 1009.4 |
| 20260831014347 | 91 | 261 | 9.0 | 12.0 | 0.00 | 0.00 | 0.00 | 100 | 1009.4 |
| 20260831013845 | 92 | 289 | 11.0 | 12.0 | 0.00 | 0.00 | 0.00 | 100 | 1009.4 |
| 20260831013609 | 94 | 258 | 4.0 | 12.0 | 0.00 | 0.00 | 0.00 | 100 | 1009.4 |
| 20260831012843 | 94 | 247 | 7.0 | 13.0 | 0.00 | 0.00 | 0.00 | 100 | 1009.4 |
| 20260831012342 | 94 | 237 | 6.0 | 15.0 | 0.00 | 0.00 | 0.00 | 100 | 1009.4 |
| 20260831011842 | 94 | 257 | 9.0 | 15.0 | 0.00 | 0.00 | 0.00 | 100 | 1009.4 |
| 20260831011341 | 95 | 251 | 8.0 | 13.0 | 0.00 | 0.00 | 0.00 | 100 | 1009.4 |
| 20260831010840 | 95 | 291 | 7.0 | 11.0 | 0.00 | 0.00 | 0.00 | 100 | 1009.4 |
| 20260831010340 | 95 | 292 | 7.0 | 16.0 | 0.00 | 0.00 | 0.00 | 100 | 1009.4 |
| 20260831005839 | 95 | 271 | 8.0 | 16.0 | 0.00 | 0.00 | 0.00 | 100 | 1009.4 |
| 20260831005339 | 94 | 243 | 10.0 | 15.0 | 0.00 | 0.00 | 0.00 | 100 | 1009.4 |
| 20260831004838 | 94 | 255 | 10.0 | 13.0 | 0.00 | 0.00 | 0.00 | 100 | 1009.4 |
| 20260831004337 | 94 | 253 | 2.0 | 9.0 | 0.00 | 0.00 | 0.00 | 100 | 1009.4 |
| 20260831003336 | 95 | 284 | 5.0 | 13.0 | 0.00 | 0.00 | 0.00 | 100 | 1009.4 |
| 20260831002835 | 95 | 282 | 7.0 | 15.0 | 0.00 | 0.00 | 0.00 | 100 | 1009.4 |
| 20260831002335 | 95 | 253 | 9.0 | 15.0 | 0.00 | 0.00 | 0.00 | 100 | 1009.4 |
| 20260831001834 | 95 | 264 | 10.0 | 15.0 | 0.00 | 0.00 | 0.00 | 100 | 1009.4 |
| 20260831001334 | 96 | 281 | 9.0 | 14.0 | 0.00 | 0.00 | 0.00 | 100 | 1009.4 |
| 20260831000832 | 96 | 268 | 6.0 | 12.0 | 0.00 | 0.00 | 0.00 | 100 | 1009.4 |
| 20260831000333 | 97 | 281 | 4.0 | 6.0 | 0.00 | 0.00 | 0.00 | 100 | 1009.4 |
| 20260830235832 | 95 | 174 | 4.0 | 8.0 | 0.00 | 0.00 | 0.00 | 100 | 1009.4 |
| 20260830235554 | 95 | 285 | 0.0 | 10.0 | 0.00 | 0.00 | 0.00 | 100 | 1009.4 |
| 20260830234822 | 97 | 307 | 1.0 | 15.0 | 0.00 | 0.00 | 0.00 | 100 | 1009.4 |
| 20260830234321 | 96 | 292 | 6.0 | 17.0 | 0.00 | 0.00 | 0.00 | 100 | 1009.4 |
| 20260830233822 | 96 | 247 | 12.0 | 17.0 | 0.00 | 0.00 | 0.00 | 100 | 1009.4 |
| 20260830233541 | 97 | 284 | 11.0 | 17.0 | 0.00 | 0.00 | 0.00 | 100 | 1009.4 |
| 20260830232820 | 97 | 358 | 3.0 | 9.0 | 0.00 | 0.00 | 0.00 | 100 | 1009.4 |
| 20260830232320 | 98 | 298 | 6.0 | 10.0 | 0.00 | 0.00 | 0.00 | 100 | 1009.4 |
| 20260830231819 | 98 | 251 | 5.0 | 18.0 | 0.00 | 0.00 | 0.00 | 100 | 1009.4 |
| 20260830231318 | 97 | 233 | 7.0 | 18.0 | 0.00 | 0.00 | 0.00 | 100 | 1009.4 |
| 20260830230817 | 97 | 253 | 16.0 | 18.0 | 0.00 | 0.00 | 0.00 | 100 | 1009.4 |
| 20260830230317 | 97 | 265 | 10.0 | 17.0 | 0.00 | 0.00 | 0.00 | 100 | 1009.4 |